Broken Bow, NE

9:03 PM CST on December 10, 2019 (GMT -0600)
Broken Bow Municipal

Weather History for KBBW - November, 2019

Change the Weather History Date:

Wednesday, November 13, 2019

  Actual Average Record
Temperature  
Mean Temperature 36 °F 37 °F  
Max Temperature 46 °F 50 °F 78 °F (1999)
Min Temperature 25 °F 24 °F -11 °F (1986)
Degree Days  
Heating Degree Days 29 28  
Month to date heating degree days 399 322  
Cooling Degree Days 0 0  
Month to date cooling degree days 0 0  
Year to date cooling degree days 839 768  
Moisture  
Dew Point 31 °F    
Average Humidity 72    
Maximum Humidity 89    
Minimum Humidity 54    
Precipitation  
Precipitation T in 0.03 in 0.92 in (1993)
Sea Level Pressure  
Sea Level Pressure 30.03 in    
Wind  
Wind Speed 10 mph (NW)    
Max Wind Speed 28 mph    
Max Gust Speed 37 mph    
Visibility 10 miles    
Events      
T = Trace of Precipitation, MM = Missing Value Source: NWS Daily Summary

Daily Weather History Graph

Daily Weather History Graph

Search for Another Location

Airport or City:

Astronomy

Nov. 13, 2019 Rise Set
Actual Time 7:24 AM CST 5:20 PM CST
Civil Twilight 6:54 AM CST 5:50 PM CST
Nautical Twilight 6:21 AM CST 6:23 PM CST
Astronomical Twilight 5:48 AM CST 6:56 PM CST
Moon 6:24 PM CST (11/13) 8:19 AM CST (11/13)
Length of Visible Light 10h 55m
Length of Day
9h 56m
Full, 99% of the Moon is Illuminated
Nov 13
Full
Nov 19
Last Quarter
Nov 26
New
Dec 4
First Quarter
Dec 11
Full

Hourly Weather History & Observations

Time (CST) Temp. Windchill Dew Point Humidity Pressure Visibility Wind Dir Wind Speed Gust Speed Precip Events Conditions
12:53 AM 30.9 °F - 18.0 °F 59% 29.88 in 10.0 mi Calm Calm - N/A   Clear
1:53 AM 28.9 °F 25.2 °F 18.0 °F 64% 29.85 in 10.0 mi Variable 3.5 mph - N/A   Clear
2:53 AM 33.1 °F 26.9 °F 19.9 °F 59% 29.84 in 10.0 mi WSW 6.9 mph - N/A   Clear
3:53 AM 37.9 °F - 23.0 °F 55% 29.81 in 10.0 mi Calm Calm - N/A   Partly Cloudy
4:53 AM 33.1 °F - 26.1 °F 75% 29.83 in 10.0 mi Calm Calm - N/A   Partly Cloudy
5:53 AM 30.0 °F 24.1 °F 25.0 °F 82% 29.88 in 10.0 mi North 5.8 mph - N/A   Partly Cloudy
6:53 AM 37.0 °F 29.3 °F 27.0 °F 67% 29.88 in 10.0 mi NNW 11.5 mph - N/A   Partly Cloudy
7:53 AM 37.0 °F 28.5 °F 28.0 °F 70% 29.91 in 10.0 mi NNW 13.8 mph - N/A   Partly Cloudy
8:53 AM 39.9 °F 33.4 °F 30.0 °F 68% 29.96 in 10.0 mi NNW 10.4 mph - N/A   Overcast
9:53 AM 43.0 °F 37.2 °F 34.0 °F 71% 29.99 in 10.0 mi NNW 10.4 mph - N/A   Overcast
10:53 AM 44.1 °F 36.5 °F 37.9 °F 79% 30.01 in 10.0 mi NNW 17.3 mph - 0.00 in   Overcast
11:53 AM 45.0 °F 37.1 °F 37.9 °F 76% 30.03 in 10.0 mi NW 19.6 mph - N/A   Overcast
12:53 PM 46.0 °F 38.3 °F 36.0 °F 68% 30.02 in 10.0 mi NNW 20.7 mph 31.1 mph N/A   Overcast
1:53 PM 44.1 °F 34.6 °F 34.0 °F 68% 30.03 in 10.0 mi NNW 26.5 mph 36.8 mph N/A   Mostly Cloudy
2:53 PM 44.1 °F 36.8 °F 34.0 °F 68% 30.04 in 10.0 mi North 16.1 mph - N/A   Overcast
3:53 PM 42.1 °F 33.1 °F 33.1 °F 70% 30.06 in 10.0 mi NNW 20.7 mph 27.6 mph N/A   Overcast
4:41 PM 42.1 °F 36.6 °F 33.1 °F 70% 30.03 in 10.0 mi NW 9.2 mph - N/A   Overcast
4:53 PM 42.1 °F 37.1 °F 33.1 °F 70% 30.08 in 10.0 mi NW 8.1 mph - N/A   Overcast
5:53 PM 41.0 °F - 33.1 °F 73% 30.10 in 10.0 mi Calm Calm - N/A   Overcast
6:53 PM 41.0 °F 35.8 °F 33.1 °F 73% 30.12 in 10.0 mi NNW 8.1 mph - N/A   Overcast
7:53 PM 39.9 °F 34.5 °F 33.1 °F 77% 30.15 in 10.0 mi NNW 8.1 mph - N/A   Overcast
8:50 PM 39.2 °F 33.6 °F 33.8 °F 81% 30.12 in 10.0 mi NNW 8.1 mph - N/A   Overcast
8:53 PM 39.0 °F 32.8 °F 33.1 °F 79% 30.16 in 10.0 mi NNW 9.2 mph - N/A   Overcast
9:41 PM 34.0 °F 28.0 °F 30.9 °F 89% 30.14 in 10.0 mi WNW 6.9 mph - N/A   Scattered Clouds
9:53 PM 34.0 °F 28.8 °F 30.9 °F 89% 30.19 in 10.0 mi WNW 5.8 mph - N/A   Mostly Cloudy
10:15 PM 37.0 °F 31.0 °F 33.1 °F 86% 30.14 in 10.0 mi NW 8.1 mph - N/A   Overcast
10:22 PM 36.0 °F 29.6 °F 32.0 °F 86% 30.15 in 10.0 mi NW 8.1 mph - N/A   Overcast
10:53 PM 36.0 °F 29.0 °F 32.0 °F 86% 30.20 in 10.0 mi NW 9.2 mph - N/A   Overcast
11:37 PM 37.0 °F 31.6 °F 32.0 °F 82% 30.17 in 10.0 mi NNW 6.9 mph - N/A   Overcast
11:53 PM 37.0 °F 29.3 °F 32.0 °F 82% 30.21 in 10.0 mi NW 11.5 mph - N/A   Overcast